DW7628 Weather Reports


Display with metric or nautical units.
time (UTC)temp
F
wind
direction
speed
MPH
gust
MPH
rain 1hr
in
rain 24hr
in
rain mn
in
humidity
%
barometer
mb
20260505152805 68 214 0.0 0.0 0.00 0.00 0.00 45 1013.7
20260505152305 68 226 0.0 0.0 0.00 0.00 0.00 45 1013.7
20260505151805 69 232 0.0 0.0 0.00 0.00 0.00 44 1013.8
20260505151305 69 240 0.0 0.0 0.00 0.00 0.00 42 1013.7
20260505150805 69 125 0.0 0.0 0.00 0.00 0.00 41 1013.8
20260505150305 70 248 0.0 0.0 0.00 0.00 0.00 40 1013.8
20260505140305 71 188 0.0 0.0 0.00 0.00 0.00 44 1013.9
20260505130305 71 291 0.0 0.0 0.00 0.00 0.00 48 1014.3
20260505124805 71 234 0.0 0.0 0.00 0.00 0.00 49 1014.4
20260505124306 71 82 0.0 0.0 0.00 0.00 0.00 48 1014.5
20260505123805 71 285 0.0 0.0 0.00 0.00 0.00 48 1014.5
20260505123306 72 148 0.0 0.0 0.00 0.00 0.00 48 1014.6
20260505122805 71 254 0.0 0.0 0.00 0.00 0.00 48 1014.7
20260505122306 71 44 0.0 0.0 0.00 0.00 0.00 49 1014.8
20260505121805 71 110 0.0 0.0 0.00 0.00 0.00 48 1014.9
20260505120805 71 169 0.0 0.0 0.00 0.00 0.00 48 1015.0
20260505115805 71 123 0.0 0.0 0.00 0.00 0.00 49 1015.0
20260505115305 71 77 0.0 0.0 0.00 0.00 0.00 47 1015.0
20260505114805 70 254 0.0 0.0 0.00 0.00 0.00 47 1014.9
20260505113806 71 279 0.0 0.0 0.00 0.00 0.00 44 1015.0
20260505113305 71 280 0.0 0.0 0.00 0.00 0.00 44 1015.0
20260505112804 70 228 0.0 0.0 0.00 0.00 0.00 46 1015.0
20260505112305 70 159 0.0 0.0 0.00 0.00 0.00 45 1015.1
20260505111805 70 208 0.0 0.0 0.00 0.00 0.00 46 1015.1
20260505111305 70 107 0.0 0.0 0.00 0.00 0.00 44 1015.1
20260505110805 71 252 0.0 0.0 0.00 0.00 0.00 44 1015.1
20260505110305 71 86 0.0 0.0 0.00 0.00 0.00 44 1015.1
20260505101804 69 281 0.0 0.0 0.00 0.00 0.00 43 1015.5
20260505101305 69 91 0.0 0.0 0.00 0.00 0.00 44 1015.6
20260505100806 69 265 0.0 0.0 0.00 0.00 0.00 44 1015.6
20260505100304 69 148 0.0 0.0 0.00 0.00 0.00 45 1015.7
20260505095805 69 55 0.0 0.0 0.00 0.00 0.00 42 1015.7
20260505095305 68 305 0.0 0.0 0.00 0.00 0.00 42 1015.7
20260505094804 67 156 0.0 0.0 0.00 0.00 0.00 44 1015.8
20260505094305 67 29 0.0 0.0 0.00 0.00 0.00 44 1015.8
20260505093805 67 84 0.0 0.0 0.00 0.00 0.00 42 1015.8
20260505093304 67 112 0.0 0.0 0.00 0.00 0.00 40 1015.8
20260505092805 67 186 0.0 0.0 0.00 0.00 0.00 43 1015.7
20260505092305 67 75 0.0 0.0 0.00 0.00 0.00 44 1015.7
20260505091804 67 78 0.0 0.0 0.00 0.00 0.00 38 1015.8
20260505091305 67 205 0.0 0.0 0.00 0.00 0.00 45 1015.7
20260505090805 67 166 0.0 0.0 0.00 0.00 0.00 48 1015.8
20260505090305 67 294 0.0 0.0 0.00 0.00 0.00 51 1015.8
20260505085804 66 255 0.0 0.0 0.00 0.00 0.00 52 1015.8
20260505085305 66 226 0.0 0.0 0.00 0.00 0.00 56 1015.9
20260505083805 66 89 0.0 0.0 0.00 0.00 0.00 56 1015.9
20260505082805 65 82 0.0 0.0 0.00 0.00 0.00 61 1015.9
20260505082305 65 78 0.0 0.0 0.00 0.00 0.00 59 1015.8
20260505081804 65 181 0.0 0.0 0.00 0.00 0.00 60 1015.8
20260505081305 65 141 0.0 0.0 0.00 0.00 0.00 58 1016.0
20260505080805 64 24 0.0 0.0 0.00 0.00 0.00 62 1016.0
20260505080304 64 91 0.0 0.0 0.00 0.00 0.00 65 1016.0
20260505075806 64 84 0.0 0.0 0.00 0.00 0.00 66 1016.0
20260505075304 64 36 0.0 0.0 0.00 0.00 0.00 66 1016.0
20260505074805 63 82 0.0 0.0 0.00 0.00 0.00 66 1015.9
20260505074305 62 76 0.0 0.0 0.00 0.00 0.00 69 1015.9
20260505073805 62 85 0.0 0.0 0.00 0.00 0.00 67 1015.9
20260505073305 62 95 0.0 0.0 0.00 0.00 0.00 69 1015.9
20260505072804 62 217 0.0 0.0 0.00 0.00 0.00 68 1015.9
20260505072305 62 82 0.0 0.0 0.00 0.00 0.00 68 1015.9
20260505071804 62 110 0.0 0.0 0.00 0.00 0.00 70 1015.9
20260505071305 60 99 0.0 0.0 0.00 0.00 0.00 74 1015.9
20260505070304 60 107 0.0 0.0 0.00 0.00 0.00 76 1015.9
20260505065804 59 88 0.0 0.0 0.00 0.00 0.00 76 1015.8
20260505065304 59 86 0.0 0.0 0.00 0.00 0.00 77 1015.9
20260505064805 59 90 0.0 0.0 0.00 0.00 0.00 76 1015.8
20260505064304 59 86 0.0 0.0 0.00 0.00 0.00 74 1015.8
20260505063804 59 83 0.0 0.0 0.00 0.00 0.00 75 1015.8
20260505063305 59 108 0.0 0.0 0.00 0.00 0.00 76 1015.9
20260505062804 58 100 0.0 0.0 0.00 0.00 0.00 76 1015.9
20260505062305 58 82 0.0 0.0 0.00 0.00 0.00 77 1016.0
20260505061304 57 96 0.0 0.0 0.00 0.00 0.00 78 1016.0
20260505060805 57 98 0.0 0.0 0.00 0.00 0.00 78 1015.9
20260505060304 56 122 0.0 0.0 0.00 0.00 0.00 80 1015.9
20260505055304 55 83 0.0 0.0 0.00 0.00 0.00 81 1015.8
20260505054305 55 105 0.0 0.0 0.00 0.00 0.00 80 1015.8
20260505053804 55 91 0.0 0.0 0.00 0.00 0.00 80 1015.7
20260505053304 55 86 0.0 0.0 0.00 0.00 0.00 80 1015.7
20260505052305 55 168 0.0 0.0 0.00 0.00 0.00 79 1015.6
20260505051805 55 168 0.0 0.0 0.00 0.00 0.00 79 1015.6
20260505051304 55 149 0.0 0.0 0.00 0.00 0.00 79 1015.6
20260505050805 55 140 0.0 0.0 0.00 0.00 0.00 79 1015.6
20260505041304 53 195 0.0 0.0 0.00 0.00 0.00 82 1015.3
20260505040805 53 195 0.0 0.0 0.00 0.00 0.00 82 1015.3
20260505040304 53 195 0.0 0.0 0.00 0.00 0.00 81 1015.3
20260505035804 53 195 0.0 0.0 0.00 0.00 0.00 81 1015.3
20260505035304 53 194 0.0 0.0 0.00 0.00 0.00 81 1015.3
20260505034804 54 128 0.0 0.0 0.00 0.00 0.00 81 1015.3
20260505034304 54 239 0.0 0.0 0.00 0.00 0.00 81 1015.2
20260505033804 54 247 0.0 0.0 0.00 0.00 0.00 80 1015.1
20260505033303 54 248 0.0 0.0 0.00 0.00 0.00 80 1015.1
20260505032804 54 248 0.0 0.0 0.00 0.00 0.00 80 1015.1
20260505032304 54 248 0.0 0.0 0.00 0.00 0.00 80 1015.0
20260505031804 54 247 0.0 0.0 0.00 0.00 0.00 79 1015.0
20260505031303 54 248 0.0 0.0 0.00 0.00 0.00 79 1015.0
20260505030804 54 248 0.0 0.0 0.00 0.00 0.00 80 1015.1
20260505030304 54 248 0.0 0.0 0.00 0.00 0.00 80 1015.0
20260505025804 54 248 0.0 0.0 0.00 0.00 0.00 80 1015.0
20260505025305 54 247 0.0 0.0 0.00 0.00 0.00 80 1015.1
20260505024304 54 43 0.0 0.0 0.00 0.00 0.00 81 1015.1
20260505023304 54 43 0.0 0.0 0.00 0.00 0.00 80 1015.2
20260505022804 54 43 0.0 0.0 0.00 0.00 0.00 80 1015.2
20260505022304 55 42 0.0 0.0 0.00 0.00 0.00 80 1015.2
20260505021804 55 51 0.0 0.0 0.00 0.00 0.00 80 1015.3
20260505021304 55 203 0.0 0.0 0.00 0.00 0.00 81 1015.3
20260505020804 55 203 0.0 0.0 0.00 0.00 0.00 81 1015.3
20260505020304 55 202 0.0 0.0 0.00 0.00 0.00 81 1015.3
20260505015805 55 199 0.0 0.0 0.00 0.00 0.00 80 1015.4
20260505015304 55 219 0.0 0.0 0.00 0.00 0.00 80 1015.4
20260505014804 55 213 0.0 0.0 0.00 0.00 0.00 78 1015.2
20260505014304 55 265 0.0 0.0 0.00 0.00 0.00 77 1015.2
20260505013304 55 210 0.0 0.0 0.00 0.00 0.00 78 1015.6
20260505012804 55 232 0.0 0.0 0.00 0.00 0.00 77 1015.6
20260505012304 55 232 0.0 0.0 0.00 0.00 0.00 78 1015.7
20260505011803 55 223 0.0 0.0 0.00 0.00 0.00 78 1015.8
20260505011304 55 151 0.0 0.0 0.00 0.00 0.00 77 1015.8
20260505010803 55 151 0.0 0.0 0.00 0.00 0.00 77 1015.9
20260505005804 55 151 0.0 0.0 0.00 0.00 0.00 76 1015.8
20260505005304 55 151 0.0 0.0 0.00 0.00 0.00 76 1015.9
20260505004804 55 150 0.0 0.0 0.00 0.00 0.00 76 1016.0
20260505004304 55 150 0.0 0.0 0.00 0.00 0.00 76 1016.1
20260505003804 55 226 0.0 0.0 0.00 0.00 0.00 78 1016.2
20260505003306 55 226 0.0 0.0 0.00 0.00 0.00 77 1016.2
20260505002806 55 226 0.0 0.0 0.00 0.00 0.00 77 1016.3
20260505002307 55 226 0.0 0.0 0.00 0.00 0.00 77 1016.3
20260505001807 55 194 0.0 0.0 0.00 0.00 0.00 76 1016.4
20260505001306 55 231 0.0 0.0 0.00 0.00 0.00 75 1016.5
20260505000806 55 232 0.0 0.0 0.00 0.00 0.00 74 1016.5
20260505000306 55 233 0.0 0.0 0.00 0.00 0.00 73 1016.4
20260504235807 55 233 0.0 0.0 0.00 0.00 0.00 72 1016.5
20260504235306 55 233 0.0 0.0 0.00 0.00 0.00 70 1016.5
20260504234807 55 233 0.0 0.0 0.00 0.00 0.00 70 1016.6
20260504234306 55 233 0.0 0.0 0.00 0.00 0.00 69 1016.6
20260504233806 55 233 0.0 0.0 0.00 0.00 0.00 69 1016.6
20260504233306 55 212 0.0 0.0 0.00 0.00 0.00 70 1016.7
20260504232807 55 211 0.0 0.0 0.00 0.00 0.00 69 1016.8
20260504232306 55 210 0.0 0.0 0.00 0.00 0.00 68 1016.9
20260504231306 55 214 0.0 0.0 0.00 0.00 0.00 70 1017.0
20260504230806 55 214 0.0 0.0 0.00 0.00 0.00 71 1017.1
20260504230306 55 214 0.0 0.0 0.00 0.00 0.00 70 1017.2
20260504225806 55 214 0.0 0.0 0.00 0.00 0.00 72 1017.2
20260504225306 55 201 0.0 0.0 0.00 0.00 0.00 72 1017.2
20260504224806 55 232 0.0 0.0 0.00 0.00 0.00 70 1017.2
20260504224306 55 286 0.0 0.0 0.00 0.00 0.00 72 1017.3
20260504223806 55 70 0.0 0.0 0.00 0.00 0.00 71 1017.3
20260504223306 55 294 0.0 0.0 0.00 0.00 0.00 71 1017.3
20260504222806 55 339 0.0 0.0 0.00 0.00 0.00 72 1017.3
20260504222306 55 91 0.0 0.0 0.00 0.00 0.00 71 1017.3
20260504221806 55 110 0.0 0.0 0.00 0.00 0.00 72 1017.4
20260504221307 55 152 0.0 0.0 0.00 0.00 0.00 73 1017.4
20260504220827 55 201 0.0 0.0 0.00 0.00 0.00 75 1017.5
20260504215807 55 237 0.0 0.0 0.00 0.00 0.00 77 1017.5
20260504215306 55 204 0.0 0.0 0.00 0.00 0.00 78 1017.5
20260504214806 55 231 0.0 0.0 0.00 0.00 0.00 78 1017.6
20260504214305 55 227 0.0 0.0 0.00 0.00 0.00 77 1017.5
20260504213806 55 149 0.0 0.0 0.00 0.00 0.00 78 1017.5
20260504213305 55 248 0.0 0.0 0.00 0.00 0.00 81 1017.5
20260504212807 55 201 0.0 0.0 0.00 0.00 0.00 82 1017.6
20260504212306 55 158 0.0 0.0 0.00 0.00 0.00 82 1017.7
20260504211806 55 91 0.0 0.0 0.00 0.00 0.00 82 1017.7
20260504210307 55 201 0.0 0.0 0.00 0.00 0.00 82 1017.8
20260504205805 55 263 0.0 0.0 0.00 0.00 0.00 82 1017.8
20260504205306 55 145 0.0 0.0 0.00 0.00 0.00 82 1017.8
20260504204805 56 239 0.0 0.0 0.00 0.00 0.00 82 1017.8
20260504204306 56 151 0.0 0.0 0.00 0.00 0.00 82 1017.7
20260504203805 56 157 0.0 0.0 0.00 0.00 0.00 81 1017.7
20260504203306 56 148 0.0 0.0 0.00 0.00 0.00 81 1017.7
20260504202806 56 158 0.0 0.0 0.00 0.00 0.00 81 1017.7
20260504202306 56 59 0.0 0.0 0.00 0.00 0.00 81 1017.6
20260504201306 56 238 0.0 0.0 0.00 0.00 0.00 81 1017.7
20260504200806 56 171 0.0 0.0 0.00 0.00 0.00 80 1017.6
20260504195806 56 152 0.0 0.0 0.00 0.00 0.00 80 1017.5
20260504195306 56 195 0.0 0.0 0.00 0.00 0.00 80 1017.5
20260504194806 56 116 0.0 0.0 0.00 0.00 0.00 80 1017.5
20260504194306 56 229 0.0 0.0 0.00 0.00 0.00 80 1017.5
20260504193306 57 171 0.0 0.0 0.00 0.00 0.00 79 1017.4
20260504192806 57 164 0.0 0.0 0.00 0.00 0.00 79 1017.4
20260504192306 57 228 0.0 0.0 0.00 0.00 0.00 78 1017.5
20260504191806 57 247 0.0 0.0 0.00 0.00 0.00 78 1017.5
20260504191306 57 132 0.0 0.0 0.00 0.00 0.00 78 1017.4
20260504190805 57 211 0.0 0.0 0.00 0.00 0.00 78 1017.4
20260504190307 57 257 0.0 0.0 0.00 0.00 0.00 78 1017.4
20260504185805 57 213 0.0 0.0 0.00 0.00 0.00 77 1017.5
20260504185306 57 200 0.0 0.0 0.00 0.00 0.00 77 1017.4
20260504184305 57 244 0.0 0.0 0.00 0.00 0.00 77 1017.3
20260504183806 57 178 0.0 0.0 0.00 0.00 0.00 76 1017.2
20260504183306 57 167 0.0 0.0 0.00 0.00 0.00 76 1017.2
20260504182806 57 151 0.0 0.0 0.00 0.00 0.00 76 1017.2
20260504182305 57 203 0.0 0.0 0.00 0.00 0.00 76 1017.1
20260504181805 58 162 0.0 0.0 0.00 0.00 0.00 76 1017.1
20260504181306 58 166 0.0 0.0 0.00 0.00 0.00 76 1017.1
20260504180805 58 242 0.0 0.0 0.00 0.00 0.00 76 1017.1
20260504175306 59 181 0.0 0.0 0.00 0.00 0.00 74 1016.9
20260504174806 59 200 0.0 0.0 0.00 0.00 0.00 74 1016.8
20260504174306 59 140 0.0 0.0 0.00 0.00 0.00 73 1016.9
20260504173805 59 90 0.0 0.0 0.00 0.00 0.00 73 1016.8
20260504173306 60 172 0.0 0.0 0.00 0.00 0.00 72 1016.8
20260504172805 60 253 0.0 0.0 0.00 0.00 0.00 72 1016.7
20260504172305 60 140 0.0 0.0 0.00 0.00 0.00 72 1016.7
20260504171805 60 210 0.0 0.0 0.00 0.00 0.00 71 1016.6
20260504171305 61 195 0.0 0.0 0.00 0.00 0.00 70 1016.6
20260504170306 61 160 0.0 0.0 0.00 0.00 0.00 69 1016.6